Location: Cherry Springs State Park
(41.6616°N, 77.8240°W)
Time: 12:39:00
(UTC-04:00)

Amateur Radio Satellites - All Passes

Search period start: 25 July 2017 12:09
Search period end: 26 July 2017 12:09
Location: Cherry Springs State Park, 41.6616°N, 77.8240°W

Satellite Date Start Highest point End Downlink Frequencies (MHz)
Time Altitude Azimuth
AO-85 25 Jul 12:11:18 12:13:49 16° 112° (ESE) 12:16:17 145.980
DELFI C3 25 Jul 12:17:53 12:19:25 12° 297° (WNW) 12:20:55 145.870
AIST 2D 25 Jul 12:28:11 12:30:58 22° 265° (W) 12:33:45 435.315
LO-87 25 Jul 12:43:04 12:46:35 50° 286° (WNW) 12:50:03 145.935 - 145.965
Oscar 19 25 Jul 12:43:25 12:47:13 21° 63° (ENE) 12:51:01 437.125/150
SPROUT 25 Jul 12:43:56 12:47:01 19° 93° (E) 12:50:05 437.525
ESTCUBE 1 25 Jul 12:45:43 12:50:16 82° 103° (ESE) 12:54:47 437.505/2401.250
BEESAT 3 25 Jul 12:49:10 12:52:55 41° 117° (ESE) 12:56:44 437.485
NO-84 25 Jul 12:55:32 12:58:06 22° 333° (NNW) 13:00:50 435.350 FM
Gurwin Techsat 1B 25 Jul 13:11:05 13:15:23 26° 65° (ENE) 13:19:41 435.225
DUCHIFAT 1 25 Jul 13:15:21 13:18:50 24° 265° (W) 13:22:19 145.980
POLYITAN 1 25 Jul 13:18:52 13:21:53 19° 267° (W) 13:24:54 437.675
PCSat 25 Jul 13:22:08 13:26:14 21° 45° (NE) 13:30:17 145.827
BEESAT 2 25 Jul 13:29:42 13:33:23 37° 116° (ESE) 13:37:08 435.950
VELOX 1 25 Jul 13:30:13 13:34:36 52° 100° (E) 13:38:57 145.980
QB50P2 25 Jul 13:33:24 13:35:08 12° 270° (W) 13:36:53 145.880/145.840
DX 1 25 Jul 13:35:42 13:38:44 18° 93° (E) 13:41:44 434.975-435.025
BUGSAT 1 25 Jul 13:42:11 13:46:12 41° 262° (W) 13:50:13 437.445
50 SAT 25 Jul 13:43:25 13:46:25 27° 97° (E) 13:49:23 437.505
NANOSAT C BR1 25 Jul 13:45:50 13:46:56 11° 270° (W) 13:48:01 145.865
AO-85 25 Jul 13:50:03 13:53:51 43° 307° (NW) 13:57:37 145.980
RS-15 25 Jul 14:13:11 14:19:32 16° 95° (E) 14:25:54 29.354- 29.394
UKube-1 25 Jul 14:16:58 14:20:54 33° 97° (E) 14:24:48 .
SPROUT 25 Jul 14:19:07 14:23:02 36° 289° (WNW) 14:26:55 437.525
Oscar 19 25 Jul 14:21:14 14:26:10 49° 260° (W) 14:31:08 437.125/150
ESTCUBE 1 25 Jul 14:25:09 14:26:23 11° 300° (WNW) 14:27:36 437.505/2401.250
BEESAT 3 25 Jul 14:27:35 14:30:40 21° 315° (NW) 14:33:47 437.485
AO-7 25 Jul 14:34:13 14:41:38 37° 59° (ENE) 14:49:03 .
ITAMSAT 1 25 Jul 14:35:49 14:39:27 19° 62° (ENE) 14:43:05 435.822/435.867
Gurwin Techsat 1B 25 Jul 14:50:03 14:55:04 43° 261° (W) 15:00:08 435.225
PCSat 25 Jul 15:04:44 15:10:08 69° 243° (WSW) 15:15:30 145.827
O/OREOS (USA 219) 25 Jul 15:07:47 15:11:38 29° 104° (ESE) 15:15:29 437.305
SO-50 25 Jul 15:07:48 15:12:09 44° 51° (NE) 15:16:32 436.795
VELOX 1 25 Jul 15:07:53 15:10:37 16° 297° (WNW) 15:13:19 145.980
BEESAT 2 25 Jul 15:08:03 15:11:15 22° 314° (NW) 15:14:29 435.950
DX 1 25 Jul 15:10:57 15:15:05 41° 289° (WNW) 15:19:11 434.975-435.025
50 SAT 25 Jul 15:16:41 15:18:55 16° 293° (WNW) 15:21:09 437.505
MOZHAYETS 4 25 Jul 15:20:36 15:22:27 12° 90° (E) 15:24:18
UKube-1 25 Jul 15:53:20 15:56:44 23° 294° (WNW) 16:00:07 .
BEESAT 25 Jul 15:58:27 16:02:57 41° 98° (E) 16:07:26 436.000
ITUPSAT 1 25 Jul 16:11:51 16:16:32 55° 101° (E) 16:21:12 437.325
ITAMSAT 1 25 Jul 16:13:19 16:18:27 57° 259° (W) 16:23:37 435.822/435.867
NO-84 25 Jul 16:13:43 16:15:31 13° 16° (NNE) 16:17:24 435.350 FM
RS-15 25 Jul 16:17:35 16:29:37 71° 116° (ESE) 16:41:52 29.354- 29.394
AO-7 25 Jul 16:25:57 16:34:04 54° 258° (WSW) 16:42:16 .
DOVE 4 25 Jul 16:40:33 16:43:53 18° 62° (ENE) 16:47:19 437.250
O/OREOS (USA 219) 25 Jul 16:47:07 16:50:58 28° 301° (WNW) 16:54:50 437.305
SO-50 25 Jul 16:48:53 16:52:20 21° 248° (WSW) 16:55:48 436.795
MOZHAYETS 4 25 Jul 16:55:30 17:00:02 65° 285° (WNW) 17:04:32
XW-2B 25 Jul 17:16:33 17:17:12 10° 64° (ENE) 17:17:50 145.730 - 145.750
CUBESAT XI-V 25 Jul 17:31:08 17:35:46 59° 100° (E) 17:40:23 437.345
XW-2C 25 Jul 17:32:01 17:34:24 16° 67° (ENE) 17:36:47 145.795 - 145.815
KKS-1 25 Jul 17:33:27 17:37:28 32° 97° (E) 17:41:26 437.445
BEESAT 25 Jul 17:36:51 17:40:27 22° 295° (WNW) 17:44:03 436.000
NUDT-PHONESAT 25 Jul 17:38:16 17:40:14 14° 66° (ENE) 17:42:13 437.300
NO-84 25 Jul 17:50:11 17:53:48 41° 35° (NE) 17:57:40 435.350 FM
ITUPSAT 1 25 Jul 17:50:53 17:53:54 17° 298° (WNW) 17:56:55 437.325
KAITUO 1B 25 Jul 17:52:26 17:55:15 21° 69° (ENE) 17:58:04 145.475/437.950
LilacSat-2 25 Jul 17:54:50 17:58:12 31° 71° (ENE) 18:01:34 437.200
STARS 25 Jul 18:02:01 18:05:46 26° 96° (E) 18:09:27 437.465
CUTE-I 25 Jul 18:04:13 18:09:15 43° 69° (ENE) 18:14:19 437.470
YUBILEINY 25 Jul 18:05:47 18:12:40 26° 81° (E) 18:19:31 435.215
XW-2F 25 Jul 18:08:09 18:11:40 40° 73° (ENE) 18:15:11 145.980 - 146.000
DOVE 4 25 Jul 18:16:13 18:21:00 58° 261° (W) 18:26:06 437.250
RS-15 25 Jul 18:31:33 18:43:03 43° 321° (NW) 18:54:38 29.354- 29.394
XW-2D 25 Jul 18:37:01 18:40:46 76° 257° (WSW) 18:44:32 145.860 - 145.880
XW-2B 25 Jul 18:47:10 18:50:52 58° 260° (W) 18:54:35 145.730 - 145.750
XW-2A 25 Jul 18:49:12 18:49:47 10° 65° (ENE) 18:50:22 145.665 - 145.685
HO-68 25 Jul 18:55:57 19:02:45 48° 66° (ENE) 19:09:34 435.675
XW-2C 25 Jul 19:04:53 19:08:19 34° 263° (W) 19:11:46 145.795 - 145.815
CUBESAT XI-V 25 Jul 19:09:54 19:12:39 16° 297° (WNW) 19:15:24 437.345
KKS-1 25 Jul 19:10:14 19:13:52 25° 293° (WNW) 19:17:29 437.445
NUDT-PHONESAT 25 Jul 19:10:20 19:13:48 38° 262° (W) 19:17:16 437.300
CUBEBUG 2 25 Jul 19:22:31 19:26:36 30° 70° (ENE) 19:30:36 437.445
KAITUO 1B 25 Jul 19:26:03 19:29:07 25° 264° (W) 19:32:12 145.475/437.950
NO-84 25 Jul 19:27:46 19:31:13 29° 230° (SW) 19:34:51 435.350 FM
LilacSat-2 25 Jul 19:30:02 19:32:33 17° 267° (W) 19:35:04 437.200
CUTE 1.7 + AOD 2 25 Jul 19:36:49 19:41:00 78° 76° (ENE) 19:45:13 437.475
AO-73 25 Jul 19:37:51 19:39:46 13° 63° (ENE) 19:41:41 145.935
STARS 25 Jul 19:38:15 19:42:03 28° 292° (WNW) 19:45:47 437.465
XW-2F 25 Jul 19:44:12 19:45:59 13° 268° (W) 19:47:46 145.980 - 146.000
CUTE-I 25 Jul 19:45:05 19:49:26 25° 266° (W) 19:53:50 437.470
SEEDS 25 Jul 19:47:58 19:52:04 64° 75° (ENE) 19:56:12 437.485
YUBILEINY 25 Jul 19:59:53 20:08:39 68° 280° (W) 20:17:29 435.215
ISS 25 Jul 20:14:04 20:16:11 16° 132° (SE) 20:18:18 437.550
UWE-3 25 Jul 20:18:46 20:23:19 69° 75° (ENE) 20:27:46 435.000/436.395/437.385
XW-2A 25 Jul 20:18:50 20:22:06 45° 261° (W) 20:25:22 145.665 - 145.685
Tancredo 1 25 Jul 20:26:58 20:29:51 62° 141° (SE) 20:32:46 437.200
AAUSAT CUBESAT 2 25 Jul 20:29:41 20:33:47 88° 77° (ENE) 20:37:56 437.432
ZACube-1 25 Jul 20:31:21 20:35:40 51° 73° (ENE) 20:39:54 437.345
STRAND 1 25 Jul 20:33:26 20:38:32 64° 101° (ESE) 20:43:35 437.568
AO-85 25 Jul 20:40:30 20:43:34 19° 45° (NE) 20:46:45 145.980
HO-68 25 Jul 20:44:16 20:50:37 33° 264° (W) 20:57:00 435.675
RS-15 25 Jul 20:50:44 21:00:06 24° 354° (N) 21:09:21 29.354- 29.394
nSIGHT-1 25 Jul 20:54:32 20:57:35 42° 139° (SE) 21:00:40 .
Oscar 11 25 Jul 20:56:22 21:00:37 65° 75° (ENE) 21:04:54 .
CUBEBUG 2 25 Jul 20:59:07 21:03:09 28° 265° (W) 21:07:07 437.445
BEESAT 3 25 Jul 21:05:45 21:09:14 27° 48° (NE) 21:12:39 437.485
AO-73 25 Jul 21:11:06 21:15:30 65° 259° (W) 21:19:49 145.935
DELFI C3 25 Jul 21:26:37 21:30:09 33° 71° (ENE) 21:33:43 145.870
SEEDS 25 Jul 21:27:36 21:28:10 10° 271° (W) 21:28:45 437.485
EO-88 25 Jul 21:43:54 21:47:07 30° 71° (ENE) 21:50:22 145.990 - 145.960
BEESAT 2 25 Jul 21:47:04 21:50:33 26° 48° (NE) 21:53:59 435.950
ISS 25 Jul 21:49:08 21:52:21 58° 328° (NNW) 21:55:34 437.550
UWE-3 25 Jul 21:58:39 22:00:09 11° 270° (W) 22:01:40 435.000/436.395/437.385
FO-29 25 Jul 22:01:14 22:07:32 34° 93° (E) 22:13:09 435.910
Tancredo 1 25 Jul 22:03:10 22:05:28 21° 340° (NNW) 22:07:48 437.200
YUBILEINY 25 Jul 22:03:16 22:07:22 14° 303° (WNW) 22:11:30 435.215
ZACube-1 25 Jul 22:09:44 22:12:12 15° 269° (W) 22:14:39 437.345
STRAND 1 25 Jul 22:14:00 22:17:11 17° 299° (WNW) 22:20:21 437.568
AO-85 25 Jul 22:20:04 22:24:12 52° 241° (WSW) 22:28:37 145.980
TIGRISAT 25 Jul 22:20:37 22:23:41 19° 93° (E) 22:26:44 435.000
nSIGHT-1 25 Jul 22:31:13 22:34:05 28° 336° (NNW) 22:36:56 .
Oscar 11 25 Jul 22:36:02 22:37:10 11° 271° (W) 22:38:19 .
BEESAT 3 25 Jul 22:43:19 22:46:45 28° 246° (WSW) 22:50:07 437.485
PRISM 25 Jul 22:55:54 22:59:51 41° 99° (E) 23:03:48 437.425
DELFI C3 25 Jul 23:02:15 23:05:00 18° 267° (W) 23:07:46 145.870
RS-15 25 Jul 23:07:11 23:17:54 33° 29° (NNE) 23:28:11 29.354- 29.394
UNISAT 6 25 Jul 23:12:12 23:16:32 79° 102° (ESE) 23:20:48 437.425
EO-88 25 Jul 23:18:32 23:20:52 16° 267° (W) 23:23:12 145.990 - 145.960
LO-87 25 Jul 23:18:39 23:22:14 60° 76° (ENE) 23:25:51 145.935 - 145.965
BEESAT 2 25 Jul 23:24:42 23:28:17 30° 245° (WSW) 23:31:49 435.950
ISS 25 Jul 23:27:04 23:29:20 17° 347° (NNW) 23:31:37 437.550
SPROUT 25 Jul 23:37:54 23:40:35 16° 64° (ENE) 23:43:14 437.525
Tancredo 1 25 Jul 23:40:26 23:41:42 12° 360° (N) 23:42:58 437.200
ESTCUBE 1 25 Jul 23:45:03 23:49:30 75° 75° (ENE) 23:54:00 437.505/2401.250
FO-29 25 Jul 23:46:00 23:52:41 44° 294° (WNW) 23:58:38 435.910
M-CUBED/EXP-1 PRIME 25 Jul 23:47:41 23:52:15 58° 105° (ESE) 23:56:50 437.505
AIST 2D 25 Jul 23:52:28 23:55:20 23° 96° (E) 23:58:11 435.315
EO-79 25 Jul 23:53:28 23:54:42 11° 90° (E) 23:55:57 145.935-145.965
TIGRISAT 25 Jul 23:56:33 00:00:31 36° 290° (WNW) 00:04:25 435.000
nSIGHT-1 26 Jul 00:09:25 00:11:16 14° 356° (N) 00:13:07 .
50 SAT 26 Jul 00:16:45 00:17:50 11° 65° (ENE) 00:18:57 437.505
VELOX 1 26 Jul 00:27:19 00:31:33 47° 72° (ENE) 00:35:50 145.980
DX 1 26 Jul 00:31:44 00:34:34 17° 64° (ENE) 00:37:25 434.975-435.025
PRISM 26 Jul 00:32:01 00:34:49 18° 295° (WNW) 00:37:36 437.425
UNISAT 6 26 Jul 00:52:01 00:52:34 10° 300° (WNW) 00:53:07 437.425
DUCHIFAT 1 26 Jul 00:58:06 01:02:10 48° 99° (E) 01:06:11 145.980
POLYITAN 1 26 Jul 01:01:48 01:06:00 69° 102° (ESE) 01:10:10 437.675
ISS 26 Jul 01:04:45 01:06:46 15° 8° (N) 01:08:47 437.550
UKube-1 26 Jul 01:11:32 01:15:16 29° 68° (ENE) 01:19:00 .
SPROUT 26 Jul 01:11:56 01:16:04 47° 261° (W) 01:20:15 437.525
QB50P2 26 Jul 01:14:55 01:19:08 76° 285° (WNW) 01:23:19 145.880/145.840
Tancredo 1 26 Jul 01:15:39 01:17:56 20° 20° (NNE) 01:20:14 437.200
O/OREOS (USA 219) 26 Jul 01:16:47 01:21:14 58° 65° (ENE) 01:25:40 437.305
RS-15 26 Jul 01:20:12 01:32:25 85° 57° (ENE) 01:43:56 29.354- 29.394
M-CUBED/EXP-1 PRIME 26 Jul 01:23:10 01:26:12 18° 301° (WNW) 01:29:16 437.505
BUGSAT 1 26 Jul 01:23:53 01:27:19 26° 96° (E) 01:30:42 437.445
AIST 2D 26 Jul 01:25:49 01:28:23 20° 291° (WNW) 01:30:58 435.315
NANOSAT C BR1 26 Jul 01:26:07 01:30:18 69° 285° (WNW) 01:34:27 145.865
EO-79 26 Jul 01:26:42 01:30:52 61° 286° (WNW) 01:34:59 145.935-145.965
nSIGHT-1 26 Jul 01:46:08 01:48:35 20° 17° (NNE) 01:51:02 .
50 SAT 26 Jul 01:46:56 01:50:10 42° 261° (W) 01:53:26 437.505
VELOX 1 26 Jul 02:05:29 02:08:15 16° 268° (W) 02:11:01 145.980
DX 1 26 Jul 02:06:11 02:10:22 46° 260° (W) 02:14:37 434.975-435.025
MOZHAYETS 4 26 Jul 02:22:56 02:25:07 13° 62° (ENE) 02:27:18
Oscar 19 26 Jul 02:32:12 02:37:19 57° 101° (E) 02:42:24 437.125/150
DUCHIFAT 1 26 Jul 02:35:01 02:37:25 15° 296° (WNW) 02:39:48 145.980
POLYITAN 1 26 Jul 02:39:55 02:41:12 11° 298° (WNW) 02:42:29 437.675
ISS 26 Jul 02:40:51 02:43:56 37° 27° (NNE) 02:46:59 437.550
UKube-1 26 Jul 02:47:41 02:51:14 25° 264° (W) 02:54:50 .
Tancredo 1 26 Jul 02:50:40 02:53:35 69° 218° (SW) 02:56:31 437.200
O/OREOS (USA 219) 26 Jul 02:57:57 03:00:06 13° 262° (W) 03:02:15 437.305
BUGSAT 1 26 Jul 02:59:14 03:02:35 25° 292° (WNW) 03:05:55 437.445
BEESAT 26 Jul 03:04:46 03:09:21 49° 71° (ENE) 03:13:58 436.000
Gurwin Techsat 1B 26 Jul 03:05:35 03:10:55 75° 103° (ESE) 03:16:14 435.225
ITUPSAT 1 26 Jul 03:18:28 03:23:13 67° 73° (ENE) 03:27:59 437.325
nSIGHT-1 26 Jul 03:22:08 03:25:22 85° 36° (NE) 03:28:35 .
RS-15 26 Jul 03:34:18 03:43:18 26° 259° (W) 03:52:01 29.354- 29.394
MOZHAYETS 4 26 Jul 03:57:09 04:01:42 67° 259° (WSW) 04:06:16
PCSat 26 Jul 04:06:00 04:08:52 15° 103° (ESE) 04:11:44 145.827
Oscar 19 26 Jul 04:12:38 04:16:11 19° 298° (WNW) 04:19:43 437.125/150
YUBILEINY 26 Jul 04:16:24 04:19:41 12° 55° (NE) 04:22:57 435.215
ISS 26 Jul 04:17:28 04:20:19 28° 224° (SW) 04:23:09 437.550
ITAMSAT 1 26 Jul 04:25:53 04:30:56 49° 100° (E) 04:35:56 435.822/435.867
AO-7 26 Jul 04:27:02 04:35:11 53° 102° (ESE) 04:43:14 .
KKS-1 26 Jul 04:31:33 04:35:28 31° 68° (ENE) 04:39:24 437.445
CUBESAT XI-V 26 Jul 04:34:22 04:38:51 57° 73° (ENE) 04:43:22 437.345
BEESAT 26 Jul 04:44:12 04:47:23 18° 268° (W) 04:50:35 436.000
Gurwin Techsat 1B 26 Jul 04:47:10 04:50:13 16° 300° (WNW) 04:53:16 435.225
STARS 26 Jul 04:58:44 05:02:22 25° 67° (ENE) 05:06:02 437.465
ITUPSAT 1 26 Jul 04:59:18 05:01:29 13° 270° (W) 05:03:42 437.325
nSIGHT-1 26 Jul 05:00:30 05:01:18 11° 231° (SW) 05:02:05 .
SO-50 26 Jul 05:24:48 05:26:41 12° 108° (ESE) 05:28:34 436.795
PCSat 26 Jul 05:46:08 05:51:33 77° 299° (WNW) 05:57:01 145.827
ITAMSAT 1 26 Jul 06:06:07 06:10:02 22° 297° (WNW) 06:13:56 435.822/435.867
KKS-1 26 Jul 06:08:17 06:12:00 25° 265° (W) 06:15:44 437.445
YUBILEINY 26 Jul 06:09:51 06:18:34 63° 78° (ENE) 06:27:10 435.215
XW-2D 26 Jul 06:11:38 06:12:27 11° 90° (E) 06:13:17 145.860 - 145.880
STRAND 1 26 Jul 06:13:56 06:16:05 13° 59° (ENE) 06:18:14 437.568
CUBESAT XI-V 26 Jul 06:14:12 06:16:35 14° 270° (W) 06:18:59 437.345
DOVE 4 26 Jul 06:14:55 06:19:54 42° 97° (E) 06:24:41 437.250
AO-7 26 Jul 06:20:12 06:27:39 38° 301° (WNW) 06:35:05 .
XW-2B 26 Jul 06:20:43 06:22:39 13° 92° (E) 06:24:34 145.730 - 145.750
CUTE-I 26 Jul 06:22:09 06:25:26 16° 91° (E) 06:28:43 437.470
STARS 26 Jul 06:34:40 06:38:35 30° 263° (W) 06:42:31 437.465
XW-2C 26 Jul 06:37:14 06:40:12 22° 95° (E) 06:43:10 145.795 - 145.815
NUDT-PHONESAT 26 Jul 06:40:54 06:43:25 17° 93° (E) 06:45:55 437.300
KAITUO 1B 26 Jul 06:56:22 06:59:36 28° 96° (E) 07:02:50 145.475/437.950
LilacSat-2 26 Jul 07:01:22 07:05:03 46° 99° (E) 07:08:42 437.200
SO-50 26 Jul 07:02:01 07:06:33 72° 305° (NW) 07:11:04 436.795
XW-2F 26 Jul 07:13:36 07:17:19 59° 100° (E) 07:21:02 145.980 - 146.000
CUTE 1.7 + AOD 2 26 Jul 07:22:58 07:25:02 13° 91° (E) 07:27:05 437.475
PCSat 26 Jul 07:32:50 07:35:53 15° 321° (NW) 07:38:57 145.827
SEEDS 26 Jul 07:34:02 07:34:55 11° 89° (E) 07:35:48 437.485
XW-2D 26 Jul 07:43:16 07:46:56 51° 286° (WNW) 07:50:35 145.860 - 145.880
STRAND 1 26 Jul 07:49:20 07:54:30 88° 256° (WSW) 07:59:41 437.568
DOVE 4 26 Jul 07:53:02 07:57:17 25° 295° (WNW) 08:01:24 437.250
XW-2B 26 Jul 07:53:28 07:57:00 40° 287° (WNW) 08:00:33 145.730 - 145.750
CUTE-I 26 Jul 08:00:36 08:05:55 64° 288° (WNW) 08:11:11 437.470
YUBILEINY 26 Jul 08:07:39 08:14:40 28° 278° (W) 08:21:40 435.215
UWE-3 26 Jul 08:10:08 08:11:52 12° 90° (E) 08:13:36 435.000/436.395/437.385
HO-68 26 Jul 08:10:36 08:17:30 49° 100° (E) 08:24:21 435.675
XW-2C 26 Jul 08:11:14 08:14:20 25° 290° (WNW) 08:17:26 145.795 - 145.815
AAUSAT CUBESAT 2 26 Jul 08:12:58 08:15:05 14° 91° (E) 08:17:11 437.432
FO-29 26 Jul 08:13:29 08:18:49 21° 56° (NE) 08:24:11 435.910
NUDT-PHONESAT 26 Jul 08:14:08 08:17:21 29° 289° (WNW) 08:20:34 437.300
KAITUO 1B 26 Jul 08:30:43 08:33:25 19° 292° (WNW) 08:36:08 145.475/437.950
LilacSat-2 26 Jul 08:37:09 08:38:55 13° 295° (WNW) 08:40:41 437.200
Oscar 11 26 Jul 08:45:22 08:46:56 12° 90° (E) 08:48:30 .
SO-50 26 Jul 08:45:52 08:47:48 12° 324° (NW) 08:49:45 436.795
CUBEBUG 2 26 Jul 08:49:04 08:53:17 61° 100° (E) 08:57:23 437.445
XW-2F 26 Jul 08:50:22 08:50:56 10° 296° (WNW) 08:51:30 145.980 - 146.000
CUTE 1.7 + AOD 2 26 Jul 08:57:01 09:01:09 53° 286° (WNW) 09:05:18 437.475
AO-73 26 Jul 08:59:22 09:02:35 22° 94° (E) 09:05:47 145.935
SEEDS 26 Jul 09:06:49 09:11:01 65° 285° (WNW) 09:15:12 437.485
XW-2A 26 Jul 09:12:50 09:16:01 43° 287° (WNW) 09:19:11 145.665 - 145.685
TIGRISAT 26 Jul 09:19:20 09:22:39 20° 66° (ENE) 09:25:55 435.000
UWE-3 26 Jul 09:44:36 09:48:41 53° 287° (WNW) 09:52:42 435.000/436.395/437.385
PRISM 26 Jul 09:45:17 09:48:51 30° 69° (ENE) 09:52:28 437.425
AAUSAT CUBESAT 2 26 Jul 09:46:45 09:50:48 50° 287° (WNW) 09:54:50 437.432
FO-29 26 Jul 09:55:04 10:02:44 87° 74° (ENE) 10:10:41 435.910
ZACube-1 26 Jul 09:55:23 09:59:32 75° 283° (WNW) 10:03:38 437.345
HO-68 26 Jul 09:58:43 10:04:59 34° 298° (WNW) 10:11:13 435.675
UNISAT 6 26 Jul 10:10:27 10:15:04 70° 75° (ENE) 10:19:37 437.425
Oscar 11 26 Jul 10:19:11 10:23:27 61° 286° (WNW) 10:27:42 .
CUBEBUG 2 26 Jul 10:27:37 10:29:20 12° 298° (WNW) 10:31:03 437.445
M-CUBED/EXP-1 PRIME 26 Jul 10:33:47 10:37:25 68° 70° (ENE) 10:41:23 437.505
AO-73 26 Jul 10:35:14 10:38:51 30° 290° (WNW) 10:42:27 145.935
DELFI C3 26 Jul 10:37:23 10:41:19 52° 99° (E) 10:45:14 145.870
NO-84 26 Jul 10:44:51 10:47:30 30° 130° (SE) 10:50:19 435.350 FM
EO-88 26 Jul 10:45:30 10:48:55 38° 98° (E) 10:52:20 145.990 - 145.960
TIGRISAT 26 Jul 10:54:36 10:59:01 43° 261° (W) 11:03:24 435.000
PRISM 26 Jul 11:20:56 11:24:08 22° 265° (W) 11:27:23 437.425
ESTCUBE 1 26 Jul 11:38:27 11:41:11 16° 92° (E) 11:43:54 437.505/2401.250
FO-29 26 Jul 11:43:25 11:48:36 19° 273° (W) 11:53:54 435.910
DUCHIFAT 1 26 Jul 11:49:45 11:53:39 36° 71° (ENE) 11:57:33 145.980
UNISAT 6 26 Jul 11:50:36 11:52:12 12° 270° (W) 11:53:47 437.425
POLYITAN 1 26 Jul 11:54:04 11:58:13 51° 73° (ENE) 12:02:22 437.675
AIST 2D 26 Jul 11:59:10 12:02:34 52° 260° (W) 12:05:59 435.315
